Location: Chervonnoye
(48.6000°N, 34.4000°E)
Time: 12:47:25
(UTC+00:00)

CAS-4B - Pass Details

Date: 12 December 2021
Orbit: 529 x 539 km, 43.0° (Epoch: 18 January)

Event Time Altitude Azimuth Distance (km) Brightness Sun altitude
Rises 15:28:48 0° 236° (SW) 2,678 ? -15.9°
Reaches altitude 10° 15:31:14 10° 225° (SW) 1,787 ? -16.3°
Maximum altitude 15:34:47 29° 165° (SSE) 998 ? -16.9°
Enters shadow 15:36:22 22° 127° (SE) 1,196 ? -17.1°
